Left ArrowRight Arrow

44.79719, -106.95618

Hourly Observations for January 26, 2016

Temp ( °F °C ) Dew Point ( °F °C ) Humidity (%) Winds ( mph kmh ) Pressure ( in mb ) Visibility ( mi km ) Precip ( " mm )
12:53 am 00:53 Clear 12 -11.1 6 -14.4 77 77 Calm 30.29 1026 N/A 0.00 0.00
1:53 am 01:53 Clear 12 -11.1 4 -15.6 70 70 Calm 30.29 1026 N/A 0.00 0.00
2:53 am 02:53 Clear 13 -10.6 6 -14.4 74 74 Calm 30.30 1026 N/A 0.00 0.00
3:53 am 03:53 Clear 17 -8.3 8 -13.3 68 68 S 3 6 30.29 1026 N/A 0.00 0.00
4:53 am 04:53 Clear 15 -9.4 7 -13.9 70 70 S 7 11 30.28 1026 N/A 0.00 0.00
5:53 am 05:53 Clear 17 -8.3 7 -13.9 64 64 SSW 5 7 30.29 1026 N/A 0.00 0.00
6:53 am 06:53 Clear 18 -7.8 8 -13.3 65 65 SSW 7 11 30.30 1026 N/A 0.00 0.00
7:53 am 07:53 Sunny 16 -8.9 6 -14.4 65 65 Calm 30.33 1027 N/A 0.00 0.00
8:53 am 08:53 Sunny 21 -6.1 13 -10.6 71 71 S 3 6 30.32 1027 N/A 0.00 0.00
9:53 am 09:53 Sunny 26 -3.3 15 -9.4 63 63 Calm 30.32 1027 N/A 0.00 0.00
10:53 am 10:53 Sunny 31 -0.6 17 -8.3 56 56 Calm 30.30 1026 N/A 0.00 0.00
11:53 am 11:53 Sunny 36 2.2 18 -7.8 48 48 Calm 30.28 1025 N/A 0.00 0.00
12:53 pm 12:53 Sunny 38 3.3 18 -7.8 44 44 S 3 6 30.25 1025 N/A 0.00 0.00
1:53 pm 13:53 Sunny 41 5 22 -5.6 47 47 SSW 6 9 30.23 1024 N/A 0.00 0.00
2:53 pm 14:53 Sunny 43 6.1 13 -10.6 29 29 Calm 30.23 1024 N/A 0.00 0.00
3:53 pm 15:53 Sunny 43 6.1 16 -8.9 34 34 Calm 30.22 1023 N/A 0.00 0.00
4:53 pm 16:53 Sunny 33 0.6 21 -6.1 61 61 SW 5 7 30.25 1024 N/A 0.00 0.00
5:53 pm 17:53 Clear 33 0.6 18 -7.8 54 54 S 5 7 30.24 1024 N/A 0.00 0.00
6:53 pm 18:53 Clear 26 -3.3 17 -8.3 69 69 Calm 30.26 1025 N/A 0.00 0.00
7:53 pm 19:53 Clear 27 -2.8 17 -8.3 66 66 SSW 6 9 30.26 1025 N/A 0.00 0.00
8:53 pm 20:53 Clear 26 -3.3 17 -8.3 69 69 Calm 30.25 1024 N/A 0.00 0.00
9:53 pm 21:53 Clear 28 -2.2 18 -7.8 66 66 SW 5 7 30.21 1023 N/A 0.00 0.00
10:53 pm 22:53 Clear 26 -3.3 17 -8.3 69 69 NW 5 7 30.21 1023 N/A 0.00 0.00
11:53 pm 23:53 Clear 25 -3.9 18 -7.8 75 75 SSW 7 11 30.19 1022 N/A 0.00 0.00

Powered by Vaisala Xweather